Location: Arrington
(35.8681°N, 86.7092°W)
Time: 09:43:44
(UTC+00:00)

Cosmos 1125 Rocket - Pass Details

Date: 23 November 2019
Orbit: 758 x 779 km, 74.0° (Epoch: 10 December)

Event Time Altitude Azimuth Distance (km) Brightness Sun altitude
Rises 10:21:50 0° 196° (SSW) 3,240 6.7 -25.9°
Reaches altitude 10° 10:24:13 10° 197° (SSW) 2,314 5.9 -25.4°
Maximum altitude 10:29:29 89° 282° (WNW) 777 3.4 -24.3°
Drops below altitude 10° 10:34:45 10° 17° (NNE) 2,315 6.1 -23.3°
Sets 10:37:08 0° 18° (NNE) 3,242 6.9 -22.8°
